SWA1481 KRDU-KBWI

Flight info

Callsign SWA1481
Flight time 0h 44m
Altitude 25000
Route BEXGO5 BOUSY DCT THHMP RAVNN8
Aircraft B738/M-SADE2E3GIJ4RWZ/LB1D1

Departure

Time 2026-05-07 03:22
Airport Raleigh-Durham International Airport (KRDU)

Arrival

Time 2026-05-07 04:06
Airport Baltimore/Washington International Thurgood Marshall Airport (KBWI)
Time Latitude Longitude Altitude Speed Heading
2026-05-07 03:06 35.87370 -78.78981 418 ft 0 kts 320°
2026-05-07 03:16 35.87361 -78.78972 418 ft 2 kts 320°
2026-05-07 03:16 35.87349 -78.78960 419 ft 2 kts 320°
2026-05-07 03:16 35.87338 -78.78948 420 ft 2 kts 320°
2026-05-07 03:16 35.87326 -78.78937 420 ft 2 kts 320°
2026-05-07 03:17 35.87314 -78.78926 420 ft 2 kts 336°
2026-05-07 03:17 35.87302 -78.78921 420 ft 2 kts 348°
2026-05-07 03:17 35.87286 -78.78919 420 ft 2 kts
2026-05-07 03:17 35.87271 -78.78922 420 ft 2 kts 17°
2026-05-07 03:18 35.87258 -78.78929 419 ft 2 kts 32°
2026-05-07 03:18 35.87248 -78.78938 419 ft 0 kts 44°
2026-05-07 03:18 35.87244 -78.78944 419 ft 0 kts 46°
2026-05-07 03:20 35.87275 -78.78917 420 ft 14 kts 31°
2026-05-07 03:20 35.87371 -78.78804 424 ft 24 kts 46°
2026-05-07 03:20 35.87524 -78.78616 428 ft 38 kts 44°
2026-05-07 03:20 35.87741 -78.78350 430 ft 44 kts 47°
2026-05-07 03:21 35.87948 -78.78085 423 ft 35 kts 58°
2026-05-07 03:21 35.87864 -78.78000 421 ft 17 kts 229°
2026-05-07 03:21 35.87696 -78.78210 428 ft 76 kts 224°
2026-05-07 03:21 35.87093 -78.78952 421 ft 167 kts 225°
2026-05-07 03:22 35.86245 -78.80133 1214 ft 193 kts 237°
2026-05-07 03:22 35.85947 -78.81604 2478 ft 186 kts 271°
2026-05-07 03:22 35.86809 -78.82799 3204 ft 224 kts 341°
2026-05-07 03:22 35.88469 -78.82701 3898 ft 252 kts
2026-05-07 03:23 35.90239 -78.82641 4654 ft 265 kts 354°
2026-05-07 03:23 35.92121 -78.82135 5478 ft 291 kts 22°
2026-05-07 03:23 35.93735 -78.80536 6380 ft 307 kts 41°
2026-05-07 03:23 35.95284 -78.78738 7477 ft 307 kts 37°
2026-05-07 03:24 35.96921 -78.77095 8538 ft 308 kts 34°
2026-05-07 03:24 35.98598 -78.75455 9528 ft 312 kts 34°
2026-05-07 03:24 36.00258 -78.73772 10522 ft 316 kts 35°
2026-05-07 03:24 36.01961 -78.71996 11345 ft 325 kts 36°
2026-05-07 03:25 36.03673 -78.70177 12303 ft 328 kts 37°
2026-05-07 03:25 36.05414 -78.68311 13064 ft 336 kts 37°
2026-05-07 03:25 36.07188 -78.66412 13859 ft 342 kts 37°
2026-05-07 03:25 36.08968 -78.64506 14716 ft 345 kts 36°
2026-05-07 03:26 36.10782 -78.62571 15585 ft 347 kts 36°
2026-05-07 03:26 36.12629 -78.60594 16318 ft 353 kts 34°
2026-05-07 03:26 36.14474 -78.58618 17058 ft 358 kts 34°
2026-05-07 03:26 36.16361 -78.56599 17888 ft 359 kts 34°
2026-05-07 03:27 36.18253 -78.54567 18526 ft 366 kts 34°
2026-05-07 03:27 36.20165 -78.52505 19297 ft 368 kts 34°
2026-05-07 03:27 36.22111 -78.50410 19923 ft 374 kts 34°
2026-05-07 03:27 36.24108 -78.48263 20546 ft 380 kts 35°
2026-05-07 03:28 36.26099 -78.46122 21096 ft 387 kts 34°
2026-05-07 03:28 36.28133 -78.43931 21840 ft 386 kts 34°
2026-05-07 03:28 36.30132 -78.41773 22516 ft 388 kts 34°
2026-05-07 03:28 36.32184 -78.39559 22919 ft 398 kts 34°
2026-05-07 03:29 36.34301 -78.37280 23536 ft 401 kts 34°
2026-05-07 03:29 36.36379 -78.35039 24084 ft 406 kts 33°
2026-05-07 03:29 36.38526 -78.32721 24530 ft 412 kts 34°
2026-05-07 03:29 36.40706 -78.30365 24947 ft 419 kts 34°
2026-05-07 03:30 36.42956 -78.27938 24979 ft 434 kts 34°
2026-05-07 03:30 36.45267 -78.25450 24972 ft 450 kts 34°
2026-05-07 03:30 36.47666 -78.22864 24967 ft 465 kts 35°
2026-05-07 03:30 36.50128 -78.20206 24965 ft 470 kts 35°
2026-05-07 03:31 36.52613 -78.17618 24968 ft 462 kts 33°
2026-05-07 03:31 36.55133 -78.15160 24977 ft 462 kts 31°
2026-05-07 03:31 36.57677 -78.12767 24980 ft 460 kts 30°
2026-05-07 03:31 36.60265 -78.10369 24981 ft 464 kts 30°
2026-05-07 03:32 36.62872 -78.07960 24981 ft 464 kts 30°
2026-05-07 03:32 36.65454 -78.05562 24983 ft 460 kts 30°
2026-05-07 03:32 36.67982 -78.03204 24981 ft 462 kts 30°
2026-05-07 03:32 36.70554 -78.00799 24980 ft 462 kts 30°
2026-05-07 03:33 36.73147 -77.98362 24950 ft 460 kts 30°
2026-05-07 03:33 36.75687 -77.95966 24940 ft 463 kts 30°
2026-05-07 03:33 36.78257 -77.93536 24933 ft 461 kts 30°
2026-05-07 03:33 36.80776 -77.91146 24934 ft 462 kts 30°
2026-05-07 03:34 36.83355 -77.88724 24932 ft 461 kts 29°
2026-05-07 03:34 36.85978 -77.86394 24927 ft 459 kts 27°
2026-05-07 03:34 36.88598 -77.84145 24925 ft 462 kts 26°
2026-05-07 03:34 36.91270 -77.81881 24920 ft 461 kts 26°
2026-05-07 03:35 36.93903 -77.79660 24919 ft 459 kts 26°
2026-05-07 03:35 36.96580 -77.77399 24922 ft 464 kts 26°
2026-05-07 03:35 36.99299 -77.75109 24915 ft 479 kts 26°
2026-05-07 03:35 37.02084 -77.72761 24913 ft 493 kts 26°
2026-05-07 03:36 37.04954 -77.70331 24915 ft 507 kts 27°
2026-05-07 03:36 37.07912 -77.67810 24913 ft 519 kts 27°
2026-05-07 03:36 37.10907 -77.65245 24913 ft 530 kts 27°
2026-05-07 03:36 37.13998 -77.62585 24911 ft 538 kts 28°
2026-05-07 03:37 37.17061 -77.59934 24912 ft 535 kts 28°
2026-05-07 03:37 37.20109 -77.57283 24918 ft 534 kts 28°
2026-05-07 03:37 37.23159 -77.54626 24915 ft 537 kts 28°
2026-05-07 03:37 37.26240 -77.51941 24909 ft 535 kts 28°
2026-05-07 03:38 37.29275 -77.49293 24914 ft 535 kts 28°
2026-05-07 03:38 37.32330 -77.46632 24915 ft 537 kts 28°
2026-05-07 03:38 37.35387 -77.43971 24911 ft 535 kts 28°
2026-05-07 03:38 37.38489 -77.41272 24906 ft 537 kts 28°
2026-05-07 03:39 37.41529 -77.38623 24904 ft 534 kts 28°
2026-05-07 03:39 37.44588 -77.36001 24908 ft 537 kts 26°
2026-05-07 03:39 37.47789 -77.33644 24903 ft 528 kts 20°
2026-05-07 03:39 37.51186 -77.31858 24906 ft 523 kts 11°
2026-05-07 03:40 37.54622 -77.30580 24911 ft 517 kts
2026-05-07 03:40 37.58131 -77.29530 24909 ft 510 kts
2026-05-07 03:40 37.61531 -77.28645 24461 ft 498 kts
2026-05-07 03:40 37.64942 -77.27839 23555 ft 495 kts
2026-05-07 03:41 37.68265 -77.27097 22745 ft 490 kts
2026-05-07 03:41 37.71629 -77.26352 21914 ft 486 kts
2026-05-07 03:41 37.74920 -77.25592 21188 ft 481 kts
2026-05-07 03:41 37.78159 -77.24804 20457 ft 476 kts
2026-05-07 03:42 37.81392 -77.23990 19769 ft 470 kts
2026-05-07 03:42 37.84584 -77.23174 18953 ft 468 kts
2026-05-07 03:42 37.87767 -77.22351 18176 ft 464 kts
2026-05-07 03:42 37.90888 -77.21538 17503 ft 458 kts
2026-05-07 03:43 37.93971 -77.20732 16822 ft 453 kts
2026-05-07 03:43 37.97075 -77.19920 16064 ft 449 kts
2026-05-07 03:43 38.00099 -77.19130 15429 ft 442 kts
2026-05-07 03:43 38.03059 -77.18356 14726 ft 437 kts
2026-05-07 03:44 38.06023 -77.17583 14062 ft 430 kts
2026-05-07 03:44 38.08935 -77.16823 13367 ft 425 kts
2026-05-07 03:44 38.11816 -77.16072 12632 ft 421 kts
2026-05-07 03:44 38.14678 -77.15331 11835 ft 418 kts
2026-05-07 03:45 38.17489 -77.14601 11071 ft 415 kts
2026-05-07 03:45 38.20301 -77.13867 10371 ft 410 kts
2026-05-07 03:45 38.23071 -77.13143 9565 ft 408 kts
2026-05-07 03:45 38.25845 -77.12413 8869 ft 402 kts
2026-05-07 03:46 38.28553 -77.11700 8186 ft 397 kts
2026-05-07 03:46 38.31213 -77.11002 7505 ft 392 kts
2026-05-07 03:46 38.33889 -77.10301 6840 ft 385 kts
2026-05-07 03:46 38.36462 -77.09431 6072 ft 386 kts 15°
2026-05-07 03:47 38.38863 -77.07993 5497 ft 382 kts 27°
2026-05-07 03:47 38.41066 -77.06153 4812 ft 379 kts 33°
2026-05-07 03:47 38.43162 -77.04181 4204 ft 373 kts 34°
2026-05-07 03:47 38.45206 -77.02213 3604 ft 366 kts 34°
2026-05-07 03:48 38.47228 -77.00304 2979 ft 359 kts 34°
2026-05-07 03:48 38.49234 -76.98457 2576 ft 346 kts 33°
2026-05-07 03:48 38.51144 -76.96728 2340 ft 339 kts 32°
2026-05-07 03:48 38.53089 -76.94991 2321 ft 340 kts 32°
2026-05-07 03:49 38.55022 -76.93219 2318 ft 341 kts 35°
2026-05-07 03:49 38.56843 -76.91279 2313 ft 342 kts 39°
2026-05-07 03:49 38.58590 -76.89222 2315 ft 346 kts 41°
2026-05-07 03:49 38.60319 -76.87112 2320 ft 344 kts 41°
2026-05-07 03:50 38.62052 -76.84988 2321 ft 344 kts 41°
2026-05-07 03:50 38.63780 -76.82882 2318 ft 343 kts 40°
2026-05-07 03:50 38.65520 -76.80775 2318 ft 345 kts 40°
2026-05-07 03:50 38.67273 -76.78659 2318 ft 345 kts 40°
2026-05-07 03:51 38.69029 -76.76547 2319 ft 345 kts 40°
2026-05-07 03:51 38.70678 -76.74347 2320 ft 346 kts 47°
2026-05-07 03:51 38.72078 -76.71804 2320 ft 348 kts 55°
2026-05-07 03:51 38.73271 -76.69111 2320 ft 351 kts 59°
2026-05-07 03:52 38.74400 -76.66361 2318 ft 350 kts 59°
2026-05-07 03:52 38.75531 -76.63599 2320 ft 350 kts 59°
2026-05-07 03:52 38.76694 -76.60884 2328 ft 350 kts 56°
2026-05-07 03:52 38.78153 -76.58409 2326 ft 341 kts 40°
2026-05-07 03:53 38.80133 -76.56874 2314 ft 337 kts 17°
2026-05-07 03:53 38.82414 -76.56160 2321 ft 335 kts
2026-05-07 03:53 38.84710 -76.55719 2317 ft 331 kts
2026-05-07 03:53 38.87019 -76.55332 2318 ft 336 kts
2026-05-07 03:54 38.89300 -76.54958 2322 ft 334 kts
2026-05-07 03:54 38.91602 -76.54548 2319 ft 333 kts
2026-05-07 03:54 38.93895 -76.54108 2317 ft 335 kts
2026-05-07 03:54 38.96207 -76.53645 2312 ft 332 kts
2026-05-07 03:55 38.98512 -76.53174 2312 ft 334 kts
2026-05-07 03:55 39.00779 -76.52705 2315 ft 331 kts
2026-05-07 03:55 39.03058 -76.52248 2316 ft 332 kts
2026-05-07 03:55 39.05358 -76.51800 2319 ft 333 kts
2026-05-07 03:56 39.07642 -76.51355 2321 ft 333 kts
2026-05-07 03:56 39.09888 -76.50604 2317 ft 336 kts 22°
2026-05-07 03:56 39.11721 -76.48742 2313 ft 344 kts 48°
2026-05-07 03:56 39.12734 -76.45923 2330 ft 353 kts 75°
2026-05-07 03:57 39.12666 -76.42751 2316 ft 362 kts 102°
2026-05-07 03:57 39.11634 -76.39807 2318 ft 363 kts 118°
2026-05-07 03:57 39.10311 -76.37045 2322 ft 366 kts 119°
2026-05-07 03:57 39.09063 -76.34193 2311 ft 358 kts 116°
2026-05-07 03:58 39.08049 -76.31358 2311 ft 335 kts 109°
2026-05-07 03:58 39.07390 -76.28603 2309 ft 309 kts 95°
2026-05-07 03:58 39.07600 -76.26058 2309 ft 276 kts 63°
2026-05-07 03:58 39.08749 -76.24290 2309 ft 241 kts 26°
2026-05-07 03:59 39.10253 -76.23897 2301 ft 214 kts 347°
2026-05-07 03:59 39.11475 -76.24856 2308 ft 208 kts 307°
2026-05-07 03:59 39.12048 -76.26577 2313 ft 213 kts 290°
2026-05-07 03:59 39.12462 -76.28406 2310 ft 210 kts 290°
2026-05-07 04:00 39.12903 -76.30213 2309 ft 212 kts 291°
2026-05-07 04:00 39.13347 -76.32014 2316 ft 210 kts 291°
2026-05-07 04:00 39.13791 -76.33820 2316 ft 210 kts 291°
2026-05-07 04:00 39.14230 -76.35610 2297 ft 213 kts 291°
2026-05-07 04:01 39.14686 -76.37431 2310 ft 212 kts 291°
2026-05-07 04:01 39.15129 -76.39220 2315 ft 206 kts 291°
2026-05-07 04:01 39.15544 -76.40926 2315 ft 190 kts 291°
2026-05-07 04:01 39.15915 -76.42480 2316 ft 177 kts 291°
2026-05-07 04:02 39.16261 -76.43960 2317 ft 171 kts 290°
2026-05-07 04:02 39.16450 -76.45503 2315 ft 177 kts 272°
2026-05-07 04:02 39.16324 -76.47062 2322 ft 169 kts 268°
2026-05-07 04:02 39.16179 -76.48502 2309 ft 155 kts 270°
2026-05-07 04:03 39.16169 -76.49793 2299 ft 136 kts 281°
2026-05-07 04:03 39.16231 -76.50998 2322 ft 136 kts 281°
2026-05-07 04:03 39.16295 -76.52209 2319 ft 134 kts 281°
2026-05-07 04:03 39.16358 -76.53397 2329 ft 133 kts 281°
2026-05-07 04:04 39.16412 -76.54569 2324 ft 130 kts 280°
2026-05-07 04:04 39.16466 -76.55712 2323 ft 125 kts 282°
2026-05-07 04:04 39.16585 -76.56835 2058 ft 133 kts 286°
2026-05-07 04:04 39.16721 -76.58047 1731 ft 142 kts 286°
2026-05-07 04:05 39.16867 -76.59314 1328 ft 145 kts 284°
2026-05-07 04:05 39.16979 -76.60576 1014 ft 135 kts 279°
2026-05-07 04:05 39.17050 -76.61736 835 ft 129 kts 278°
2026-05-07 04:05 39.17119 -76.62877 632 ft 130 kts 277°
2026-05-07 04:06 39.17178 -76.64046 411 ft 128 kts 278°
2026-05-07 04:06 39.17254 -76.65167 217 ft 123 kts 276°
2026-05-07 04:06 39.17316 -76.66248 139 ft 114 kts 275°
2026-05-07 04:06 39.17361 -76.66961 140 ft 45 kts 274°
2026-05-07 04:07 39.17377 -76.67218 138 ft 25 kts 272°
2026-05-07 04:07 39.17392 -76.67454 132 ft 27 kts 275°
2026-05-07 04:07 39.17461 -76.67679 118 ft 23 kts 334°
2026-05-07 04:07 39.17509 -76.67614 113 ft 11 kts 96°
2026-05-07 04:08 39.17504 -76.67480 116 ft 21 kts 73°
2026-05-07 04:08 39.17561 -76.67352 135 ft 9 kts 56°
2026-05-07 04:08 39.17593 -76.67291 136 ft 9 kts 57°
2026-05-07 04:08 39.17612 -76.67173 131 ft 18 kts 126°
2026-05-07 04:09 39.17491 -76.67017 127 ft 26 kts 115°
2026-05-07 04:09 39.17506 -76.66838 132 ft 13 kts
2026-05-07 04:09 39.17538 -76.66933 136 ft 17 kts 283°
2026-05-07 04:09 39.17645 -76.67094 140 ft 27 kts 326°
2026-05-07 04:10 39.17796 -76.67233 139 ft 27 kts 323°
2026-05-07 04:10 39.17948 -76.67379 133 ft 23 kts 325°
2026-05-07 04:10 39.18018 -76.67390 134 ft 5 kts 54°
2026-05-07 04:10 39.18026 -76.67375 135 ft 0 kts 56°
2026-05-07 04:11 39.18030 -76.67368 136 ft 0 kts 54°
2026-05-07 04:11 39.18037 -76.67356 137 ft 3 kts 55°
2026-05-07 04:11 39.18038 -76.67353 137 ft 0 kts 55°